Le nostre stazioni meteo in Italia

Pubblicità
Il mio iltempo24.it
Dalwhinnie, Gran Bretagna (99005): Temperatura & dewpoint: 14.08.2017 05:00:00 - 20.08.2017 05:00:00 (BST)Dalwhinnie, Gran Bretagna (99005): velocità del vento: 14.08.2017 05:00:00 - 20.08.2017 05:00:00 (BST)Dalwhinnie, Gran Bretagna (99005): direzione del vento: 14.08.2017 05:00:00 - 20.08.2017 05:00:00 (BST)Dalwhinnie, Gran Bretagna (99005): visibility: 14.08.2017 05:00:00 - 20.08.2017 05:00:00 (BST)Dalwhinnie, Gran Bretagna (99005): precipitazioni: 14.08.2017 05:00:00 - 20.08.2017 05:00:00 (BST)
Data & Tempo tt [°C] td [°C] ff [km/h] ff [kn] dd vv [km] rr [mm]
20.08.2017 05:00:00 - - - - - - -
20.08.2017 04:00:00 10,7 7,9 - - - - 0,0
20.08.2017 03:00:00 10,8 8,7 - - - - 0,0
20.08.2017 02:00:00 10,5 9,0 - - - - 0,0
20.08.2017 01:00:00 10,5 8,8 - - - - 0,0
20.08.2017 00:00:00 10,7 8,7 - - - - 0,0
19.08.2017 23:00:00 11,2 8,6 - - - - 0,0
19.08.2017 22:00:00 11,5 9,1 - - - - 0,0
19.08.2017 21:00:00 11,8 9,4 - - - - 0,2
19.08.2017 20:00:00 12,0 9,8 - - - - 0,0
19.08.2017 19:00:00 12,4 10,0 - - - - 0,2
19.08.2017 18:00:00 13,0 9,7 - - - - 0,4
19.08.2017 17:00:00 12,2 10,5 - - - - 3,4
19.08.2017 16:00:00 13,6 10,5 - - - - 0,6
19.08.2017 15:00:00 13,5 10,7 - - - - 0,0
19.08.2017 14:00:00 12,7 10,3 - - - - 0,6
19.08.2017 13:00:00 12,1 10,0 - - - - 0,6
19.08.2017 12:00:00 13,0 9,4 - - - - 0,4
19.08.2017 11:00:00 12,3 9,4 - - - - 0,0
19.08.2017 10:00:00 11,4 8,8 - - - - 0,0
19.08.2017 09:00:00 11,2 8,6 - - - - 0,0
19.08.2017 08:00:00 9,9 7,9 - - - - 0,0
19.08.2017 07:00:00 9,5 6,3 - - - - 0,0
19.08.2017 06:00:00 9,4 5,9 - - - - 0,0
19.08.2017 05:00:00 9,3 6,3 - - - - 0,0
19.08.2017 04:00:00 9,4 6,8 - - - - 0,2
19.08.2017 03:00:00 9,9 7,9 - - - - 0,0
19.08.2017 02:00:00 10,2 8,4 - - - - 0,4
19.08.2017 01:00:00 10,5 8,5 - - - - 0,0
19.08.2017 00:00:00 10,9 9,0 - - - - 0,0
18.08.2017 23:00:00 11,2 9,5 - - - - 0,6
18.08.2017 22:00:00 11,0 8,7 - - - - 0,0
18.08.2017 21:00:00 11,1 8,8 - - - - 0,0
18.08.2017 20:00:00 11,3 9,0 - - - - 0,0
18.08.2017 19:00:00 11,4 8,6 - - - - 0,0
18.08.2017 18:00:00 11,8 8,2 - - - - 0,0
18.08.2017 17:00:00 11,2 8,6 - - - - 0,0
18.08.2017 16:00:00 11,0 9,1 - - - - 0,0
18.08.2017 15:00:00 11,6 8,1 - - - - 0,2
18.08.2017 14:00:00 10,8 8,6 - - - - 0,4
18.08.2017 13:00:00 10,5 9,0 - - - - 1,0
18.08.2017 12:00:00 10,1 8,3 - - - - 0,6
18.08.2017 11:00:00 9,7 7,7 - - - - 0,8
18.08.2017 10:00:00 9,4 7,5 - - - - 1,4
18.08.2017 09:00:00 10,0 6,7 - - - - 0,6
18.08.2017 08:00:00 9,7 8,0 - - - - 0,8
18.08.2017 07:00:00 10,7 9,8 - - - - 1,4
18.08.2017 06:00:00 11,5 9,8 - - - - 0,0
18.08.2017 05:00:00 11,5 9,9 - - - - 0,0
18.08.2017 04:00:00 11,4 9,4 - - - - 1,8
18.08.2017 03:00:00 12,1 10,0 - - - - 0,0
18.08.2017 02:00:00 12,4 10,2 - - - - 0,0
18.08.2017 01:00:00 12,0 10,2 - - - - 0,0
18.08.2017 00:00:00 12,2 10,2 - - - - 0,0
17.08.2017 23:00:00 11,0 9,4 - - - - 0,0
17.08.2017 22:00:00 11,0 9,4 - - - - 0,0
17.08.2017 21:00:00 11,5 9,8 - - - - 0,0
17.08.2017 20:00:00 12,6 11,1 - - - - 0,0
17.08.2017 19:00:00 12,9 11,3 - - - - 0,2
17.08.2017 18:00:00 13,7 11,4 - - - - 0,2
17.08.2017 17:00:00 13,2 11,7 - - - - 0,2
17.08.2017 16:00:00 15,3 12,7 - - - - 0,2
17.08.2017 15:00:00 14,3 12,4 - - - - 0,2
17.08.2017 14:00:00 14,3 11,5 - - - - 0,0
17.08.2017 13:00:00 14,4 11,7 - - - - 0,0
17.08.2017 12:00:00 13,4 10,7 - - - - 0,0
17.08.2017 11:00:00 14,2 10,9 - - - - 0,0
17.08.2017 10:00:00 13,2 10,1 - - - 10 0,0
17.08.2017 09:00:00 13,1 10,3 - - - - 0,0
17.08.2017 08:00:00 11,4 9,5 - - - - 0,0
17.08.2017 07:00:00 11,0 9,8 - - - - 0,0
17.08.2017 06:00:00 11,0 9,4 - - - - 0,0
17.08.2017 05:00:00 9,1 8,1 - - - - 0,0
17.08.2017 04:00:00 10,6 9,2 - - - - 0,0
17.08.2017 03:00:00 11,4 10,2 - - - - 0,0
17.08.2017 02:00:00 12,1 11,2 - - - - 0,2
17.08.2017 01:00:00 12,5 11,3 - - - - 0,4
17.08.2017 00:00:00 14,5 12,6 - - - - 0,0
16.08.2017 23:00:00 14,1 12,7 - - - - 1,2
16.08.2017 22:00:00 13,7 12,6 - - - - 0,6
16.08.2017 21:00:00 14,0 12,4 - - - - 0,2
16.08.2017 20:00:00 13,6 12,2 - - - - 1,4
16.08.2017 19:00:00 13,9 11,9 - - - - 0,6
16.08.2017 18:00:00 14,3 10,9 - - - - 0,0
16.08.2017 17:00:00 14,2 10,5 - - - - 0,0
16.08.2017 16:00:00 13,5 10,7 - - - - 0,2
16.08.2017 15:00:00 13,8 10,7 - - - - 0,0
16.08.2017 14:00:00 13,3 9,0 - - - - 0,0
16.08.2017 13:00:00 13,0 8,8 - - - - 0,0
16.08.2017 12:00:00 14,0 8,9 - - - - 0,0
16.08.2017 11:00:00 13,4 9,0 - - - - 0,0
16.08.2017 10:00:00 13,2 8,9 128 69 N 13 0,0
16.08.2017 09:00:00 11,6 8,1 - - - - 0,0
16.08.2017 08:00:00 11,0 7,9 - - - - 0,0
16.08.2017 07:00:00 9,8 7,5 - - - - 0,0
16.08.2017 06:00:00 10,2 8,3 - - - - 0,0
16.08.2017 05:00:00 9,9 8,0 - - - - 0,0
16.08.2017 04:00:00 9,6 7,4 - - - - 0,0
16.08.2017 03:00:00 9,7 8,4 - - - - 0,0
16.08.2017 02:00:00 9,9 8,1 - - - - 0,0
16.08.2017 01:00:00 9,9 8,2 - - - - 0,0
16.08.2017 00:00:00 10,4 9,1 - - - - 0,0
15.08.2017 23:00:00 10,5 8,3 - - - - 0,0
15.08.2017 22:00:00 11,2 7,8 - - - - 0,0
15.08.2017 21:00:00 10,6 7,5 - - - - 0,0
15.08.2017 20:00:00 11,9 8,5 - - - - 0,0
15.08.2017 19:00:00 11,9 10,0 - - - - 0,4
15.08.2017 18:00:00 12,5 9,4 - - - - 0,0
15.08.2017 17:00:00 13,6 9,5 - - - - 0,0
15.08.2017 16:00:00 14,4 9,9 - - - - 0,0
15.08.2017 15:00:00 14,6 8,1 - - - - 0,0
15.08.2017 14:00:00 13,1 9,2 - - - - 0,0
15.08.2017 13:00:00 14,0 8,8 - - - - 0,0
15.08.2017 12:00:00 13,4 9,4 - - - - 0,0
15.08.2017 11:00:00 12,9 8,5 - - - - 0,0
15.08.2017 10:00:00 12,7 8,5 - - - 10 0,0
15.08.2017 09:00:00 12,4 8,6 - - - - 0,0
15.08.2017 08:00:00 11,0 8,5 - - - - 0,0
15.08.2017 07:00:00 10,0 7,9 - - - - 0,0
15.08.2017 06:00:00 10,4 8,1 - - - - 0,0
15.08.2017 05:00:00 11,7 8,6 - - - - 0,0
15.08.2017 04:00:00 11,4 10,0 - - - - 0,0
15.08.2017 03:00:00 11,5 10,8 - - - - 0,0
15.08.2017 02:00:00 12,0 11,1 - - - - 0,0
15.08.2017 01:00:00 12,0 11,3 - - - - 0,0
15.08.2017 00:00:00 12,2 11,5 - - - - 0,0
14.08.2017 23:00:00 12,5 11,7 - - - - 0,0
14.08.2017 22:00:00 12,8 12,1 - - - 10 2,4
14.08.2017 21:00:00 13,5 11,9 - - - - 0,0
14.08.2017 20:00:00 13,9 12,3 - - - - 0,0
14.08.2017 19:00:00 14,3 12,6 - - - - 0,4
14.08.2017 18:00:00 14,3 12,4 - - - - 0,2
14.08.2017 17:00:00 14,6 12,4 - - - - 0,4
14.08.2017 16:00:00 14,2 12,1 - - - - 0,2
14.08.2017 15:00:00 14,1 12,2 - - - - 0,4
14.08.2017 14:00:00 13,2 11,1 - - - - 0,4
14.08.2017 13:00:00 12,7 10,8 - - - - 0,0
14.08.2017 12:00:00 12,0 10,4 - - - - 0,2
14.08.2017 11:00:00 11,1 9,3 - - - - 0,0
14.08.2017 10:00:00 10,4 8,6 122 66 N 5 0,2
14.08.2017 09:00:00 9,8 7,7 - - - - 0,4
14.08.2017 08:00:00 9,3 7,9 - - - - 0,8
14.08.2017 07:00:00 9,5 7,2 - - - - 0,0
14.08.2017 06:00:00 10,1 6,9 - - - - 0,0
14.08.2017 05:00:00 9,4 6,3 - - - - 0,0

tt = Temperatura
td = dewpoint
ff = velocità del vento
dd = direzione del vento
vv = visibility
rr = precipitazioni

Stazioni seguenti

WeatherPro
AMSI
MeteoEarth